Wind_Speed
8 9 7 4 2 1 0 1 1 1 0 1 1 1 0 0 0 1 2 1 1 0 1 1 2 2 2 3 6 4 2 2 4 3 3 2 8 24 21 18 25 26 26 25 24 23 21 20 19 18 17 15 15 17 17 17 17 15 15 15 14 13 13 13 11 11 10 9 9 8 8 7 6 6 5 5 3 3 3 3 4 4 5 5 6 7 7 8 9 9 10 10 10 10 11 11 10
10 9 6 3 2 2 0 0 1 1 1 1 1 1 0 1 1 1 1 0 1 2 3 4 1 3 2 3 6 3 3 3 2 3 0 5 15 19 15 20 26 26 26 25 25 24 23 21 20 19 17 16 15 16 17 17 16 14 13 14 13 12 12 12 11 10 10 9 8 8 7 6 6 5 4 3 3 4 4 5 5 6 6 6 7 7 8 9 10 10 10 10 10 11 11 11 11
10 9 7 3 2 2 0 2 1 1 1 1 1 0 1 1 1 2 2 3 3 4 5 4 1 3 3 3 2 1 1 4 4 2 3 10 13 13 14 21 26 25 24 24 23 23 23 22 21 20 18 17 16 15 16 16 15 13 13 13 13 12 11 11 11 10 9 9 8 7 7 6 5 4 4 4 4 5 5 6 7 7 7 8 8 8 9 9 10 10 11 11 11 11 11 11 10
10 9 7 4 1 1 1 1 1 2 1 1 0 1 1 1 3 3 3 4 4 2 3 2 2 1 4 4 2 2 1 3 4 3 5 9 9 14 18 22 26 25 23 21 20 21 21 21 20 20 18 17 17 15 15 15 14 13 13 12 12 11 11 10 10 10 9 9 8 7 7 6 5 4 4 4 5 6 6 7 7 8 8 9 9 9 9 10 11 10 11 11 11 12 12 11 10
11 9 5 3 0 1 1 1 1 1 1 1 1 1 0 1 4 6 6 6 5 1 1 0 2 1 4 3 1 2 1 4 5 3 6 7 9 18 20 24 26 25 24 20 19 19 19 19 18 18 16 16 16 16 15 14 14 13 12 12 12 11 11 10 10 9 9 9 8 7 7 6 5 4 5 5 6 7 8 8 8 9 10 10 10 10 10 11 11 11 11 11 11 12 12 11 11
12 8 3 1 0 0 1 1 1 1 1 0 1 1 0 1 2 5 7 7 5 1 1 1 3 3 4 2 2 2 3 5 5 5 8 8 12 19 21 26 26 25 25 21 19 18 18 18 17 16 15 14 14 15 14 14 13 13 12 12 12 12 11 11 11 10 10 8 7 7 6 6 5 5 6 6 7 8 8 9 9 10 10 11 11 11 11 11 12 12 11 11 11 12 12 12 12
11 5 1 2 1 0 1 2 1 1 1 0 0 1 1 2 3 4 6 4 3 3 3 2 4 5 3 1 2 2 3 6 6 9 11 13 16 19 23 26 25 26 24 21 20 18 18 17 16 15 14 14 13 13 12 12 12 13 13 13 13 12 12 12 11 10 9 8 8 8 7 6 6 6 7 8 9 9 9 9 10 10 11 11 11 11 12 12 12 12 11 11 11 13 13 12 11
6 2 0 1 1 1 2 1 1 1 1 1 2 2 1 3 3 4 4 2 2 3 4 1 3 6 2 2 2 4 6 8 9 12 14 17 20 20 24 25 24 25 24 22 21 19 17 15 15 14 14 13 13 12 11 11 11 12 12 13 13 12 12 12 11 10 9 8 8 8 8 7 7 8 8 9 10 10 10 10 10 11 11 12 12 12 13 12 13 12 12 12 11 14 14 13 12
2 1 0 1 1 1 2 1 1 0 1 2 4 2 2 4 3 3 4 3 1 2 4 3 2 5 1 5 3 3 7 11 13 15 17 20 21 21 23 24 24 24 23 22 21 20 17 15 14 13 13 12 12 12 11 12 11 11 12 12 13 13 13 12 11 10 9 9 9 9 9 8 9 9 10 11 11 11 11 11 11 12 12 12 12 13 13 13 13 13 14 13 12 14 15 14 14
2 1 0 2 1 1 2 1 1 1 1 3 3 3 4 4 3 3 3 2 2 3 4 3 6 6 3 4 2 2 6 14 17 17 19 21 21 22 22 22 23 23 23 22 21 20 17 15 14 13 13 12 12 11 11 12 12 12 11 12 12 13 13 12 11 11 10 10 9 9 9 10 10 11 11 12 12 12 12 12 13 13 13 13 13 13 14 14 14 15 15 13 14 15 15 14 15
2 1 1 2 2 1 2 2 1 1 1 2 2 3 4 4 3 3 2 2 3 3 2 4 7 4 4 3 2 2 10 16 19 19 20 20 21 23 22 21 21 21 22 21 20 20 18 15 14 13 13 13 12 12 12 12 12 12 12 12 11 12 12 11 11 11 11 10 10 10 10 11 12 12 12 12 12 13 13 13 14 14 14 14 14 14 14 14 14 15 14 13 14 16 15 14 14
2 2 2 2 1 1 2 2 1 2 2 1 2 3 3 3 2 2 2 2 3 4 3 4 3 3 4 3 1 5 10 13 17 20 20 20 21 22 22 21 21 20 20 20 19 19 18 15 14 14 13 13 12 12 11 11 12 12 11 11 11 11 11 11 11 11 11 11 12 11 12 12 13 13 13 13 13 14 14 14 15 15 15 14 15 15 14 14 14 15 14 14 14 16 16 15 15
1 0 2 1 0 0 1 1 1 1 1 2 2 3 2 3 1 1 2 2 3 3 3 4 2 4 4 1 1 4 6 9 15 18 20 20 20 21 20 20 21 20 18 19 19 19 18 16 15 14 13 13 12 12 11 11 11 11 11 11 11 11 11 11 12 12 12 12 12 12 13 13 14 14 14 14 14 15 15 15 16 16 16 16 16 15 15 14 15 16 15 15 15 16 16 16 17
2 1 2 1 1 0 1 0 1 2 1 1 1 2 2 2 1 2 2 3 4 1 1 3 2 5 4 2 1 2 5 11 14 16 18 18 19 19 18 19 19 19 18 18 19 19 19 17 16 15 15 14 14 13 13 12 12 12 12 13 13 12 12 12 13 13 13 13 13 13 13 14 14 14 15 15 15 15 16 16 17 17 16 16 16 15 15 15 15 16 16 16 16 16 17 16 17
3 1 3 1 2 1 0 1 1 3 1 1 1 1 1 3 2 2 2 3 2 1 1 1 2 3 3 4 4 5 8 15 15 15 17 17 19 18 17 18 18 18 18 18 19 20 20 18 17 16 16 16 15 15 15 14 14 14 14 14 13 13 13 13 13 13 13 14 14 14 14 15 15 15 15 15 15 16 15 16 17 17 16 16 16 16 15 15 15 15 15 16 16 16 17 17 17
2 1 3 2 2 2 0 2 1 3 2 2 2 1 2 3 2 2 2 2 1 1 1 1 2 1 6 4 6 10 15 19 17 17 17 17 17 16 16 17 17 17 18 19 19 20 20 18 17 17 18 17 17 16 16 16 16 15 14 14 14 13 14 13 13 13 14 14 14 14 15 15 16 17 16 16 16 16 16 16 17 17 16 16 16 16 16 15 15 15 14 15 16 15 16 17 18
1 2 2 2 1 1 1 3 2 3 3 4 4 4 4 1 2 2 1 1 1 2 2 1 3 1 6 4 9 17 19 20 20 19 18 17 16 14 15 15 16 17 18 20 20 21 21 20 18 18 19 19 18 17 17 17 17 16 14 14 14 14 14 13 14 14 14 15 15 15 16 17 17 18 18 18 18 18 17 17 17 17 17 16 16 16 17 16 15 15 15 14 16 15 14 16 17
2 2 1 2 2 1 2 4 3 3 4 6 6 7 6 1 2 1 1 2 2 3 3 2 4 4 4 8 18 21 21 23 23 21 18 16 15 14 14 15 17 17 18 20 22 23 23 23 21 19 20 19 19 18 19 19 19 18 16 15 15 15 14 14 15 15 16 16 17 17 17 18 19 19 19 19 19 18 17 17 17 18 18 17 17 17 17 17 16 16 16 15 14 15 14 15 17
2 2 1 2 3 1 1 4 3 3 4 6 6 6 5 1 2 0 2 2 3 4 2 3 4 4 6 14 21 21 22 24 23 22 19 17 16 15 15 16 17 17 18 21 23 24 24 24 23 22 21 20 20 19 20 19 20 19 17 16 16 16 16 16 17 17 18 18 19 19 19 19 19 20 20 19 19 18 17 18 17 18 18 17 17 17 17 16 16 17 18 16 15 15 16 16 16
2 2 1 4 4 1 1 4 3 3 6 7 4 4 3 1 1 0 3 3 2 2 2 2 5 5 6 11 17 20 21 22 22 21 18 17 17 17 17 18 19 20 22 22 23 23 24 24 23 22 21 21 21 20 20 20 19 18 18 17 17 17 18 18 19 19 20 20 20 20 20 20 19 20 20 19 19 19 19 19 19 18 19 18 18 18 18 17 17 18 18 18 17 17 16 16 15
2 3 2 4 2 2 3 4 4 4 7 6 3 2 2 2 0 1 5 4 1 3 4 3 6 8 9 10 13 17 17 17 18 17 16 16 16 17 18 20 21 21 21 20 21 23 23 22 22 21 21 21 21 20 20 19 19 18 18 18 19 19 18 18 18 19 20 20 20 19 20 20 20 20 20 20 19 20 20 20 20 19 19 19 19 19 19 18 18 18 18 17 17 16 16 16 16
1 3 4 3 1 3 2 4 6 5 5 4 4 3 3 2 0 2 6 4 3 4 4 4 5 7 10 12 13 13 12 12 13 14 14 15 16 17 17 17 17 16 18 19 21 22 22 21 21 20 20 20 20 20 19 19 18 19 19 19 19 19 19 19 19 19 19 19 19 19 19 19 20 20 20 20 20 20 21 21 21 20 21 20 20 20 20 19 19 19 18 16 15 16 16 16 15
1 2 2 2 2 3 3 4 5 5 6 4 4 3 2 3 0 2 4 4 3 2 3 4 4 6 11 14 13 12 11 11 12 15 17 17 17 18 19 18 17 17 18 20 22 22 21 21 21 21 20 19 19 19 19 19 19 20 19 19 20 20 19 20 19 19 19 18 18 18 19 19 19 20 20 20 20 21 21 21 21 21 22 21 21 21 21 20 20 19 18 16 16 16 16 16 14
2 1 0 3 3 5 4 4 5 5 5 3 2 2 2 2 1 1 2 4 4 2 2 4 6 7 10 12 11 12 12 12 15 18 21 20 20 20 19 19 18 16 18 20 21 22 22 21 21 21 20 20 19 19 20 21 20 20 19 20 20 20 19 20 18 18 18 17 17 17 17 18 18 19 19 20 20 21 21 21 22 23 23 22 22 22 23 22 21 20 17 16 17 17 16 14 13
3 1 1 3 4 4 5 6 5 4 3 1 3 2 1 2 1 1 4 5 3 1 4 5 7 7 8 10 10 11 11 12 14 17 18 18 17 15 14 15 15 15 18 20 21 21 21 20 20 20 20 20 20 20 21 21 20 20 20 20 19 18 19 18 16 16 17 16 16 16 16 17 18 19 20 20 21 21 21 22 23 24 24 23 23 24 24 23 22 20 18 17 17 16 14 13 12
5 3 2 4 3 4 5 5 4 3 1 2 4 1 4 1 1 1 5 4 1 3 5 5 7 7 7 9 9 9 9 10 12 14 16 15 13 12 13 14 14 17 19 19 19 20 19 19 19 19 20 20 20 20 21 21 20 20 19 19 18 17 17 16 16 16 16 16 16 16 17 18 19 20 21 22 23 24 23 24 25 26 26 25 25 26 26 25 23 21 18 18 18 17 14 12 12
5 5 4 5 4 3 4 5 3 3 1 2 4 1 4 2 2 2 4 2 2 4 6 5 6 6 7 7 8 9 9 12 15 15 13 12 12 13 15 15 17 19 19 19 20 19 19 19 19 18 19 20 21 21 21 21 20 19 19 18 18 16 16 16 16 17 17 17 17 17 19 20 21 22 23 24 26 27 27 27 27 27 28 27 26 25 25 26 26 23 18 18 19 16 13 12 12
7 7 5 5 5 3 3 4 3 2 1 2 4 0 3 3 1 4 4 1 4 5 5 4 5 5 6 7 7 7 8 13 15 13 12 13 15 16 17 18 20 20 20 21 20 19 19 20 20 19 19 20 22 22 22 21 20 19 19 19 19 17 16 17 17 18 18 19 19 20 21 22 23 24 25 26 28 29 30 30 29 29 29 28 27 26 23 22 25 24 18 17 18 15 14 13 12
7 7 5 4 5 3 1 3 3 2 1 4 5 2 4 1 4 5 2 4 5 5 5 4 4 3 4 6 6 6 7 11 12 11 15 18 19 19 18 18 19 20 22 22 21 20 21 21 22 21 21 21 22 23 23 22 21 20 19 19 19 18 18 19 19 19 20 20 21 21 22 22 24 25 26 27 28 30 31 30 30 30 29 28 27 26 23 19 21 22 19 17 17 14 14 13 11
5 5 4 2 5 4 4 3 3 3 1 4 4 2 4 5 7 4 1 5 6 4 4 3 2 2 3 4 3 4 5 8 10 12 16 18 19 18 16 13 13 16 18 18 20 21 22 23 24 25 24 24 23 23 23 22 21 21 20 19 19 19 19 20 20 20 21 22 22 22 22 21 22 23 24 25 27 29 30 30 30 30 30 28 26 22 19 16 17 19 19 17 15 13 13 12 11
4 3 2 2 2 4 4 3 5 3 0 3 5 1 5 6 7 3 3 5 6 5 3 2 2 3 3 3 2 3 3 4 6 10 12 13 14 13 11 9 8 10 12 14 16 18 20 23 26 27 27 26 24 24 23 22 21 21 20 20 19 19 20 21 21 21 21 21 21 20 19 18 19 19 19 20 21 22 25 27 26 25 23 21 17 14 14 14 14 18 18 16 14 13 12 11 10
3 2 3 2 1 3 3 3 7 5 1 2 5 0 5 6 6 3 5 6 6 5 4 3 3 4 4 3 3 3 4 4 5 6 4 4 7 7 7 5 4 5 8 10 12 15 16 17 23 28 28 27 26 24 23 22 21 21 21 21 21 21 21 22 21 21 21 20 19 16 15 15 15 16 17 17 19 20 21 22 21 19 19 16 13 15 17 16 16 18 18 16 13 12 11 10 8
2 2 1 2 2 2 2 1 6 6 3 0 2 0 3 3 5 2 6 7 6 5 4 4 5 4 4 3 2 3 4 5 6 6 2 0 3 4 4 3 3 4 5 7 9 11 11 10 15 23 25 25 25 24 23 21 21 21 22 22 22 22 22 21 19 18 16 15 14 13 13 14 15 18 20 19 20 22 21 21 20 19 21 21 20 20 19 16 18 18 17 15 13 12 10 8 6
3 1 2 3 3 1 1 2 3 6 4 2 2 2 5 4 5 3 5 8 6 6 5 5 5 5 4 2 2 4 4 4 6 6 2 0 1 2 3 4 3 4 5 6 7 8 7 5 10 18 21 22 22 22 21 20 20 21 22 21 20 19 17 15 13 11 11 11 12 13 15 16 17 19 20 19 19 20 20 21 21 21 22 23 24 25 21 18 19 19 16 14 14 14 10 6 5
4 4 3 3 3 3 3 3 4 8 5 3 4 3 9 9 5 3 3 7 7 6 5 5 5 5 4 3 4 4 4 6 6 5 3 0 0 2 1 2 3 4 5 5 5 4 3 4 8 13 17 18 18 19 18 17 17 17 16 15 14 12 11 10 9 9 10 12 13 14 16 17 17 17 17 16 16 17 19 20 20 20 20 20 21 23 22 21 20 19 17 14 13 14 9 5 5
7 7 5 4 4 3 4 3 5 9 5 3 6 5 7 7 5 2 3 5 6 4 4 5 4 5 4 3 4 3 6 5 3 5 3 5 6 4 1 2 3 5 6 6 4 4 4 6 8 9 11 12 14 14 14 14 12 10 9 10 10 10 9 9 9 10 11 13 14 15 15 15 15 15 14 14 14 16 17 18 18 18 19 20 20 22 23 21 20 21 18 12 12 12 7 3 4
6 4 5 6 4 4 4 2 4 8 5 3 6 5 6 5 5 2 3 4 5 5 4 5 5 4 4 4 4 4 6 4 3 4 8 12 12 6 1 3 2 3 5 6 6 7 7 8 8 9 8 8 10 11 12 12 11 10 9 9 8 8 9 9 9 10 12 13 13 13 13 13 13 13 14 14 14 15 15 16 16 17 18 18 21 23 21 22 22 20 15 9 10 8 2 1 4
4 4 4 5 4 5 4 3 5 7 4 2 3 4 5 5 4 2 2 4 4 5 5 5 5 4 3 4 4 5 4 3 4 6 13 5 11 9 4 3 5 4 2 2 2 5 7 7 6 7 6 6 7 8 9 10 9 10 10 11 9 7 7 9 9 10 11 11 11 11 11 12 12 13 14 13 13 13 13 14 14 15 16 15 19 19 14 16 17 12 8 6 6 2 3 4 6
4 3 3 3 3 2 2 3 6 6 2 2 2 3 3 6 3 1 2 3 2 3 5 4 4 4 4 4 3 4 3 4 3 7 8 3 7 7 5 5 8 8 6 6 6 3 3 5 3 3 2 2 3 4 6 6 6 6 6 6 7 6 7 8 9 9 9 9 10 11 11 11 12 12 12 12 11 11 11 11 12 13 13 12 15 15 10 8 4 6 3 3 1 3 5 6 8
3 4 4 2 3 3 1 2 5 4 2 2 4 3 3 5 3 2 2 0 1 1 1 1 2 3 4 4 2 3 3 4 3 5 3 5 1 1 4 4 6 7 6 5 5 9 6 4 4 4 4 3 3 5 5 6 4 1 3 2 2 4 6 6 6 6 7 8 9 10 10 10 10 10 11 12 11 11 9 8 8 9 9 8 9 7 5 4 3 4 3 3 5 6 7 8 10
1 5 5 3 4 5 4 3 4 3 3 2 5 4 4 4 4 3 3 2 2 3 3 3 3 1 2 0 2 3 3 4 4 3 4 5 3 3 5 7 9 8 6 2 2 7 8 6 7 7 6 5 4 5 5 4 3 2 1 1 2 3 5 6 6 6 7 9 10 11 9 9 9 9 11 12 13 13 12 12 12 12 10 9 10 9 6 7 8 7 7 7 8 9 9 9 10
4 4 6 6 7 5 6 7 5 4 3 1 4 3 4 4 3 4 4 2 1 2 1 1 4 3 2 2 2 2 3 3 4 3 5 6 6 7 9 10 10 9 7 2 1 7 8 5 5 5 5 5 5 4 3 2 1 1 2 3 3 5 6 7 7 8 8 10 11 10 8 8 8 9 10 11 12 12 13 13 13 13 12 10 10 10 10 11 10 9 9 9 10 10 9 10 10
4 4 7 8 8 7 9 8 5 3 2 2 3 4 2 5 4 4 4 2 2 3 2 3 4 3 3 2 1 2 3 3 4 4 6 7 7 8 9 11 10 8 5 4 6 8 5 2 2 2 2 4 5 4 3 2 1 1 1 3 4 5 5 5 6 7 8 9 10 8 8 8 9 9 10 11 12 13 13 13 13 12 11 11 11 12 12 12 11 11 11 10 10 10 9 10 11
3 5 8 12 10 9 10 9 4 2 2 3 3 5 2 3 4 5 3 3 4 5 5 5 4 3 3 1 3 3 4 4 4 4 4 6 8 9 10 11 10 8 7 7 8 7 4 3 2 2 2 4 5 5 4 3 1 1 2 3 3 4 4 4 4 5 7 8 8 8 8 8 9 10 11 12 13 13 13 13 12 12 12 12 12 12 12 12 12 12 12 11 10 10 10 10 10
3 4 6 9 7 7 7 7 4 1 2 2 4 2 3 3 4 4 3 2 3 5 5 5 4 3 3 2 4 4 4 4 3 3 3 4 6 8 8 8 7 7 6 5 4 5 5 5 5 5 5 5 5 5 4 3 2 1 2 2 3 4 4 5 5 5 6 6 7 7 8 9 10 11 12 13 13 13 13 12 12 12 12 12 12 11 11 11 11 11 11 11 10 10 10 9 9
0 3 8 8 7 7 6 5 3 3 3 3 5 2 2 4 4 3 3 0 3 4 5 5 4 3 3 3 4 3 2 2 1 1 1 2 3 3 2 3 4 4 4 3 3 4 5 6 7 7 6 5 5 4 3 3 2 2 2 2 5 5 5 5 5 5 5 6 6 7 9 10 11 12 13 13 13 13 12 11 11 11 10 11 11 10 11 11 11 11 11 10 10 9 9 8 9
6 7 10 10 7 6 5 3 3 3 2 5 6 4 5 1 4 2 2 3 4 4 3 4 4 3 3 3 2 1 0 1 2 2 2 2 2 2 2 3 4 4 4 3 4 5 5 6 7 7 6 5 5 4 3 2 2 3 3 4 6 6 5 5 4 4 5 5 7 8 9 10 11 12 12 12 12 12 12 12 11 11 10 10 10 10 10 11 11 11 10 10 9 9 8 8 8
6 5 7 7 5 5 4 4 3 1 4 5 5 2 6 2 3 2 4 5 3 5 4 5 5 3 2 2 2 1 1 2 3 3 3 3 3 4 5 6 6 7 7 6 6 6 6 7 7 7 7 6 5 4 3 3 3 4 5 6 7 6 5 5 4 4 5 6 8 9 9 9 10 10 10 11 11 11 11 12 11 11 11 10 10 10 10 10 10 10 10 9 9 9 8 7 8
5 5 6 6 3 3 2 3 1 3 5 2 2 1 3 1 4 3 5 7 5 5 5 6 6 4 2 2 1 1 1 2 3 3 4 3 4 6 8 9 8 9 9 8 8 8 8 9 9 9 8 7 6 6 5 5 6 6 7 7 6 6 5 4 4 4 6 6 7 8 8 8 8 8 9 9 9 9 10 10 10 10 10 10 10 9 9 9 9 9 9 8 8 9 9 9 10
4 6 5 5 3 2 0 3 2 3 4 2 3 2 1 2 2 3 6 7 5 4 4 4 5 5 4 3 2 1 1 2 3 4 5 5 6 9 11 11 10 9 8 7 7 8 10 11 11 10 9 7 7 6 6 6 6 6 7 6 5 4 3 3 3 4 6 6 6 7 6 6 7 6 7 8 7 7 8 8 8 8 9 9 8 8 8 9 9 9 8 8 9 10 10 11 11
3 3 5 6 5 4 3 4 3 3 3 1 2 1 2 2 2 5 5 3 2 2 2 3 4 4 4 3 2 2 3 4 4 4 5 6 8 10 11 11 11 10 9 8 8 9 11 11 11 11 10 9 8 6 5 5 5 5 5 4 4 4 4 3 4 4 5 6 6 6 5 6 5 4 5 5 5 4 5 6 7 7 7 7 7 8 9 9 9 9 8 8 9 10 10 11 11
1 2 5 4 4 5 4 3 5 3 1 1 2 0 1 2 2 6 3 2 3 3 4 5 4 3 3 3 3 3 4 4 4 5 5 5 7 7 6 6 8 8 8 9 10 11 11 10 10 10 10 9 8 6 5 5 5 5 4 4 3 4 6 5 4 4 4 4 4 4 5 4 3 2 3 2 2 2 3 4 5 6 6 6 8 9 10 10 9 8 8 7 8 8 9 10 11
1 2 4 3 3 7 5 1 1 3 3 1 1 1 3 2 2 5 3 4 3 2 4 4 3 2 2 3 4 4 5 5 5 5 4 3 4 4 4 5 6 7 8 9 11 12 11 10 10 10 9 9 7 6 6 6 6 5 4 3 3 4 5 4 3 3 3 3 3 3 3 2 0 2 2 1 1 0 2 3 4 5 6 6 8 9 11 12 11 10 9 8 6 6 7 8 10
4 2 4 3 3 5 5 3 3 4 2 3 1 2 2 1 1 4 2 3 2 2 3 3 2 2 3 4 4 5 6 5 5 4 3 3 3 3 4 5 7 7 8 9 10 10 10 9 9 10 10 8 7 7 7 7 6 5 4 3 3 4 4 3 3 3 2 2 1 1 1 1 2 3 2 1 2 2 3 4 4 5 5 6 7 8 10 12 13 13 12 10 7 6 7 8 9
4 5 3 2 3 1 1 3 1 1 1 3 3 1 2 3 4 4 4 6 7 5 3 4 4 4 5 5 5 6 6 5 5 4 3 3 1 2 3 5 7 7 7 8 10 10 9 9 9 10 9 7 7 8 8 7 5 4 4 3 2 2 2 1 3 3 2 1 1 2 2 3 3 3 3 2 2 3 5 5 5 5 5 5 5 6 6 8 11 13 13 12 9 6 6 7 9
4 4 2 2 3 4 2 2 3 3 3 2 2 2 2 4 5 7 9 9 9 7 6 6 7 6 5 5 5 6 6 5 4 3 3 2 1 1 2 5 6 7 7 8 9 10 10 10 10 10 8 7 7 8 8 6 4 4 3 2 2 2 1 3 4 3 2 1 2 3 4 4 4 4 3 3 3 4 5 6 5 3 3 4 4 4 4 5 7 10 11 11 9 7 6 6 8
3 3 1 1 2 2 2 2 2 4 4 3 1 1 4 5 4 8 11 10 10 10 8 7 6 7 6 5 6 6 6 5 4 3 2 1 3 2 3 5 7 9 9 8 9 10 10 11 11 11 10 9 9 9 8 5 4 3 3 2 2 1 2 4 5 4 3 3 4 5 5 5 4 4 5 5 4 5 6 6 4 2 3 3 3 3 4 5 6 7 9 9 9 7 6 5 7
6 4 4 4 3 4 3 1 1 2 4 3 4 2 5 4 2 6 9 10 9 9 9 7 6 7 6 6 7 7 6 5 3 0 1 2 3 2 4 7 8 9 9 9 10 10 10 10 10 11 11 11 11 10 8 6 5 4 3 4 5 5 5 5 5 3 3 2 3 4 5 4 3 3 5 5 4 5 6 5 4 4 4 3 1 2 4 5 6 7 9 9 9 8 6 4 5
Wind_Direction
188 184 192 192 224 262 149 161 132 319 62 67 210 196 240 100 236 276 314 330 46 87 76 8 219 170 154 162 163 149 93 149 161 145 205 290 139 152 153 155 158 157 154 151 149 147 148 150 148 150 151 149 154 163 164 163 161 157 152 149 149 152 152 153 156 159 163 167 175 188 194 190 186 181 180 178 177 197 216 236 244 253 259 269 279 286 289 290 290 287 285 283 281 279 276 273 273
188 188 187 174 309 314 217 355 83 358 33 51 282 197 130 50 358 256 272 297 193 295 343 330 220 114 46 105 132 110 59 37 117 154 223 119 134 149 155 157 159 158 154 152 151 150 151 151 152 153 153 153 153 163 171 171 170 166 158 150 150 157 158 160 164 167 171 177 188 200 201 194 192 189 189 193 211 227 238 249 255 261 269 278 285 292 292 291 289 286 285 282 281 279 277 275 274
191 194 190 154 4 349 38 5 86 68 60 198 286 297 91 87 251 256 275 264 254 304 337 319 44 98 58 57 55 92 114 40 86 107 107 133 139 157 163 159 160 160 156 153 153 153 154 153 155 155 157 159 157 161 168 175 176 174 168 159 159 165 167 169 172 175 178 187 201 207 204 204 204 202 208 223 237 245 253 258 264 271 280 286 286 289 290 291 288 286 286 283 284 283 282 280 280
183 189 191 164 25 331 132 37 113 108 101 223 331 334 63 13 304 333 308 286 283 335 352 315 34 48 91 83 12 69 103 64 106 95 133 154 160 166 163 159 161 160 158 157 157 157 156 156 158 159 161 162 163 164 166 171 174 176 175 168 167 171 175 177 179 183 187 198 210 211 211 214 215 218 231 242 251 259 261 265 272 280 284 287 287 287 290 291 289 288 287 285 285 286 288 287 289
169 171 182 181 214 325 128 83 98 104 217 221 104 301 83 41 337 332 310 305 304 314 245 228 66 6 80 88 36 85 73 98 129 120 137 165 174 166 161 160 161 161 160 160 161 161 159 159 162 162 164 165 167 169 170 172 175 177 178 176 177 181 184 186 188 191 198 207 212 214 221 226 229 237 251 259 266 270 267 272 278 284 285 287 289 289 291 292 290 289 288 288 288 290 294 295 296
158 155 151 133 74 317 63 67 75 166 244 191 145 308 72 92 10 318 311 312 304 290 190 118 118 107 70 55 65 127 171 126 137 150 146 162 175 167 162 161 161 162 162 163 164 166 163 162 165 166 167 168 171 172 173 176 178 180 180 184 187 191 193 195 196 199 205 211 217 224 234 237 245 254 267 272 274 277 275 279 282 285 287 288 290 290 291 292 291 290 289 289 292 294 294 296 300
151 142 106 76 40 289 58 58 63 213 271 261 200 12 32 11 10 318 323 330 338 15 42 78 121 108 75 30 60 33 133 129 132 154 160 161 168 166 163 163 161 163 164 165 167 169 166 166 169 170 173 172 175 177 178 180 182 184 185 189 195 198 200 203 203 204 210 217 226 237 248 248 256 264 274 277 277 280 280 283 285 288 290 291 291 290 290 290 291 289 288 290 294 294 293 295 299
139 107 278 60 4 33 56 32 38 171 300 334 83 79 72 17 359 325 332 350 359 2 9 9 102 91 14 15 60 5 70 115 138 153 161 157 163 164 164 165 163 164 166 168 169 170 169 170 174 176 180 180 183 183 183 186 187 191 193 197 200 204 206 208 208 209 215 224 234 244 253 256 265 272 278 279 279 281 282 285 287 290 291 292 292 290 288 286 287 286 286 291 295 293 296 298 298
97 33 265 86 10 38 51 5 350 132 339 24 82 94 8 12 8 345 343 353 350 7 358 309 86 97 47 40 63 341 64 117 137 145 154 156 162 163 166 169 168 168 169 171 171 172 171 175 180 182 187 188 191 190 191 194 195 199 201 206 208 212 212 212 212 214 219 231 241 249 257 264 270 277 280 280 283 283 284 286 286 289 288 289 290 289 289 287 287 287 288 291 293 292 297 302 301
66 12 8 89 46 30 30 51 340 334 57 55 79 69 10 356 10 359 344 355 353 27 15 13 65 96 129 64 30 325 104 129 132 139 151 158 163 164 168 172 174 174 174 174 173 175 175 177 184 188 192 196 201 201 202 204 205 207 209 212 214 216 214 215 218 219 225 236 246 254 261 268 273 278 280 281 284 285 285 285 285 288 286 286 286 286 286 286 287 288 292 294 294 295 298 302 303
53 348 36 71 41 34 5 50 73 60 97 80 57 46 22 341 1 353 346 22 6 46 15 27 71 100 103 63 347 117 131 135 135 141 154 162 165 167 169 173 178 179 178 178 176 179 179 180 187 194 197 200 208 211 213 213 212 214 215 216 217 217 216 221 224 225 230 239 248 256 263 269 276 279 281 282 283 285 286 286 286 286 285 284 284 284 283 284 287 288 294 298 297 297 300 300 302
43 334 45 76 44 21 339 14 60 106 114 50 27 31 23 332 353 1 12 30 2 59 22 5 119 143 77 53 332 126 134 139 143 148 159 164 165 169 171 175 181 183 184 183 182 183 183 185 190 200 206 207 213 218 222 220 217 220 221 222 223 223 223 227 230 231 234 241 250 258 266 273 278 279 281 283 284 285 285 285 285 284 283 282 282 283 283 284 288 291 295 299 298 299 302 302 304
85 229 52 50 161 170 326 356 336 78 70 11 23 9 13 328 334 334 355 25 358 63 37 350 127 107 79 80 46 135 147 147 149 153 161 163 165 169 172 178 183 187 189 188 188 187 189 192 194 202 210 214 220 223 227 227 226 227 227 228 229 229 230 232 237 238 241 246 254 263 271 275 278 280 282 283 285 285 284 284 283 282 281 280 281 282 283 286 289 293 297 299 299 302 305 307 309
152 162 83 359 357 69 297 43 325 72 18 321 50 358 352 291 277 281 292 58 27 55 312 314 109 91 95 136 107 186 175 156 151 152 158 159 163 166 173 181 185 190 191 190 191 191 194 197 199 205 212 216 222 225 227 230 232 232 233 234 232 233 235 237 241 242 247 252 259 267 272 275 277 280 282 283 284 284 284 284 284 282 281 281 283 284 286 287 289 293 297 300 302 307 309 310 314
178 125 96 13 349 9 264 178 177 114 150 231 106 335 264 261 269 295 262 101 52 256 284 313 102 88 150 162 177 207 172 158 152 149 151 154 161 167 176 183 188 194 194 192 192 194 197 201 204 209 215 219 222 224 226 228 231 233 236 239 237 238 240 243 245 248 254 259 265 269 272 275 277 279 279 280 281 282 284 284 286 286 285 287 287 287 287 288 290 292 296 301 305 310 311 310 314
175 84 76 22 331 326 224 169 162 125 161 162 105 227 245 262 230 259 251 138 103 297 4 60 352 97 157 168 187 174 158 156 152 148 146 148 157 164 173 182 189 195 198 196 196 199 201 204 209 212 217 222 225 226 227 230 231 233 237 241 242 244 247 250 253 257 261 265 268 269 272 275 276 277 276 277 278 278 279 280 283 284 285 285 286 286 286 288 289 290 295 302 306 309 311 310 313
84 67 48 352 287 290 202 177 183 151 154 140 135 202 231 247 184 230 260 115 101 37 40 115 349 87 153 173 164 155 153 155 152 148 143 145 152 157 168 177 185 193 200 202 202 204 206 209 214 217 219 223 227 229 230 232 233 233 236 241 244 248 252 257 259 262 264 266 267 269 272 273 273 274 275 278 277 276 277 279 279 279 279 279 282 283 285 287 288 292 295 298 304 305 307 310 315
65 70 34 308 253 275 193 185 176 145 144 152 159 202 229 187 159 247 34 52 63 68 38 49 26 39 116 136 146 149 152 154 154 150 147 148 153 157 169 178 185 193 201 206 208 209 211 214 219 221 222 223 226 229 231 234 235 232 231 237 243 248 252 256 258 260 261 263 264 265 267 268 271 274 277 279 279 281 282 283 281 279 278 278 280 281 284 290 294 297 298 296 297 300 305 311 316
147 108 47 270 221 223 189 163 150 141 144 156 169 202 232 221 150 139 85 63 61 100 65 61 70 63 97 128 142 149 151 154 158 157 157 160 164 169 175 183 190 196 203 208 210 211 214 217 221 224 224 225 226 229 232 235 238 235 231 235 242 247 250 252 255 257 258 260 262 264 266 268 271 273 277 280 282 285 285 283 280 279 278 278 280 282 287 293 298 299 302 303 298 299 306 310 312
175 100 35 265 210 177 57 133 136 136 136 148 175 198 219 220 156 127 115 85 51 151 177 128 127 137 132 136 146 150 152 157 162 164 166 170 174 176 179 186 195 202 207 211 211 211 215 218 221 224 226 226 227 231 235 237 239 240 238 241 248 252 253 254 256 258 259 262 264 268 271 274 275 276 279 281 284 284 283 281 278 276 276 278 281 285 289 293 297 298 302 304 302 303 304 304 304
160 143 200 251 183 70 55 107 109 111 127 148 162 158 194 208 155 113 122 103 321 242 227 187 155 156 151 148 153 154 155 159 163 168 173 177 180 183 187 193 199 206 209 212 214 214 216 219 222 224 226 227 229 233 237 240 242 244 246 248 253 256 259 260 261 262 264 266 269 273 276 279 280 280 282 283 284 284 284 282 281 280 280 283 286 288 291 294 296 297 299 299 299 300 299 298 299
138 203 219 224 145 85 90 103 108 116 116 130 142 151 178 156 76 154 144 153 222 223 216 200 155 156 158 156 157 157 158 161 166 174 180 185 188 190 196 200 205 208 209 212 216 217 219 221 223 225 227 228 231 235 239 243 245 248 250 252 254 257 261 263 265 267 270 272 274 276 278 280 282 283 284 285 285 285 286 284 284 285 286 288 290 292 293 294 295 294 294 294 294 294 293 295 295
134 271 244 141 103 113 128 107 112 124 119 138 162 168 148 124 116 179 172 198 241 249 193 174 134 148 161 157 156 161 167 170 174 182 187 191 194 195 198 202 205 206 208 213 218 220 222 222 224 226 228 230 232 235 239 242 245 248 252 254 256 258 261 265 269 272 274 276 277 278 280 282 284 285 286 287 287 287 287 285 285 287 288 290 292 294 293 292 291 292 292 290 288 290 291 291 290
155 310 265 102 82 109 123 119 120 116 128 168 157 111 115 141 121 101 216 255 290 311 150 136 114 130 154 158 163 170 173 178 184 190 192 195 199 200 200 202 204 206 210 214 219 222 224 225 226 228 230 232 233 234 237 240 244 247 251 254 256 260 264 267 271 274 276 278 279 280 282 283 285 286 288 290 291 291 289 287 288 288 289 291 294 296 295 292 289 287 290 287 284 287 290 289 288
201 215 185 96 74 103 110 113 116 105 117 109 102 102 262 189 168 128 232 268 302 124 123 115 108 118 149 163 169 172 176 184 191 196 199 203 206 206 206 206 204 210 214 215 220 223 224 227 228 230 232 234 236 236 238 241 243 246 250 253 256 261 264 267 270 273 275 278 281 282 283 283 284 286 289 293 294 294 292 289 289 289 291 294 297 299 297 294 288 285 284 281 281 285 287 287 287
200 156 114 96 74 99 112 117 117 110 97 88 119 269 310 290 307 264 242 264 327 117 114 113 116 123 147 162 170 173 179 186 192 200 206 211 212 214 216 212 210 216 220 219 221 225 226 227 230 233 233 236 238 239 240 242 244 246 248 252 256 260 262 265 267 270 274 278 281 284 285 284 285 286 289 292 293 292 291 290 289 289 291 294 298 302 301 296 287 283 281 276 278 282 283 284 288
136 107 80 84 85 90 109 122 131 118 85 137 142 258 308 350 25 290 268 285 95 120 113 117 125 132 145 156 172 175 182 189 194 198 204 213 214 216 219 218 218 222 225 225 225 229 230 228 231 234 234 237 239 240 242 243 244 247 249 252 255 258 260 264 267 270 274 277 281 284 285 286 287 288 290 291 292 291 290 290 290 290 290 289 291 295 299 299 290 281 274 271 275 279 281 285 290
102 99 71 56 68 72 93 113 146 144 118 163 134 70 318 8 70 249 256 111 107 130 120 113 130 141 146 151 169 176 185 192 193 194 198 209 212 216 223 225 226 228 231 231 231 232 234 234 234 233 233 236 239 241 242 244 247 250 254 255 256 258 262 266 269 272 275 279 282 283 284 285 287 288 290 291 291 290 289 289 289 287 286 284 285 286 285 293 292 281 267 265 271 275 282 288 292
88 91 76 30 33 33 173 134 156 168 182 177 138 34 321 291 225 254 246 122 105 131 128 116 142 157 158 159 168 175 183 184 185 195 202 206 209 215 223 227 232 236 238 239 238 237 240 240 239 237 234 234 238 241 243 246 250 253 257 259 260 263 265 269 272 276 279 282 284 285 286 286 288 288 289 290 290 289 288 287 284 282 282 282 285 285 277 278 282 272 257 259 266 271 284 291 292
75 72 78 46 18 334 228 154 129 163 187 162 126 357 287 252 240 254 146 132 115 135 148 130 160 192 210 198 185 188 185 176 180 195 200 199 200 206 214 217 226 238 243 243 242 244 247 247 245 241 236 235 237 240 244 247 250 254 259 261 263 266 270 273 276 280 283 286 287 288 290 292 292 291 289 290 290 288 287 285 281 279 278 275 275 278 278 275 269 259 249 252 261 268 282 292 291
67 66 38 64 56 297 248 144 135 156 221 119 95 20 272 274 261 220 153 150 134 154 186 168 193 218 241 258 260 257 239 201 200 202 198 195 198 204 209 206 208 224 234 237 241 247 253 254 249 243 238 237 238 241 244 248 252 255 259 262 265 269 272 276 279 283 286 288 289 290 292 293 292 292 292 296 298 296 292 287 284 284 285 281 274 272 279 274 257 254 253 250 256 267 280 290 289
58 87 329 342 161 282 301 151 160 157 357 105 106 96 270 285 281 217 155 158 149 162 200 212 228 232 236 256 264 276 286 281 265 245 215 191 208 220 226 224 217 220 223 228 238 249 260 261 249 241 238 237 238 241 245 249 254 257 260 262 266 270 273 277 281 285 286 286 288 289 288 287 289 292 293 301 308 307 301 290 282 283 286 282 275 273 277 267 246 248 256 255 256 265 280 285 280
357 115 240 263 192 282 324 189 182 152 102 176 156 211 269 292 317 299 157 158 158 168 200 221 233 239 231 247 268 267 278 293 286 270 268 136 231 239 251 267 268 247 237 231 241 256 272 276 247 235 234 236 238 241 244 250 254 257 259 261 266 273 276 278 279 280 280 281 283 285 285 289 294 294 294 299 303 303 299 289 279 277 273 267 266 270 272 262 245 243 252 262 269 274 279 277 275
300 238 239 235 185 190 286 269 200 153 129 183 205 261 262 269 328 326 171 158 161 179 202 220 229 239 231 228 259 261 257 261 263 259 261 46 265 283 283 279 273 252 236 232 242 259 274 272 237 228 230 235 238 240 244 250 253 255 259 263 268 271 271 269 269 272 277 281 284 287 290 294 297 298 301 303 299 295 291 285 282 282 276 269 268 267 263 250 238 239 244 252 268 277 276 273 280
214 217 237 238 179 172 218 254 191 163 152 157 164 241 265 271 310 317 191 160 167 190 202 214 224 234 231 210 217 235 243 242 249 254 251 235 356 18 346 233 217 213 201 209 224 237 239 223 216 219 225 231 235 239 242 244 247 251 253 254 252 250 253 257 268 281 289 292 294 297 298 301 304 307 309 305 296 290 287 285 286 286 283 279 272 261 253 240 229 233 238 239 258 269 270 274 289
191 208 210 198 180 202 222 238 189 159 145 165 172 214 259 282 317 288 178 149 159 182 195 210 219 226 228 217 215 226 243 244 259 266 296 2 2 13 48 142 151 164 160 163 166 161 159 168 183 194 208 218 222 223 225 226 225 221 217 219 229 243 258 272 286 295 300 303 306 308 309 312 314 316 314 308 301 296 296 297 296 292 289 286 274 258 247 236 226 224 226 236 262 265 263 275 301
177 202 223 209 185 230 236 204 182 150 138 209 192 217 266 305 321 282 153 133 155 176 200 223 222 222 223 217 220 234 247 262 298 318 24 13 340 333 200 179 148 129 131 138 141 141 143 149 159 160 167 181 193 199 200 202 192 179 191 218 245 267 276 287 300 307 311 313 315 318 320 322 322 321 318 315 312 309 308 308 304 301 300 292 275 259 244 237 232 218 209 230 258 257 238 38 343
170 185 211 220 195 228 246 152 165 155 137 267 187 204 278 312 309 290 123 142 187 203 209 232 236 237 242 226 229 247 264 308 319 28 55 19 290 306 323 319 313 307 328 354 114 132 136 140 146 144 147 162 177 192 196 199 193 183 203 234 256 275 287 299 312 317 321 325 329 332 332 332 329 325 324 323 321 319 318 317 313 311 310 297 277 268 258 252 241 203 185 235 247 233 85 59 21
150 156 165 215 211 219 297 104 143 156 147 281 165 154 297 315 298 300 112 159 227 233 203 212 223 227 251 240 233 258 283 306 313 61 74 231 265 313 333 342 319 300 288 301 317 304 174 148 149 146 156 194 204 222 223 225 223 191 185 217 249 276 300 312 321 327 333 336 338 340 340 340 337 334 336 339 336 329 325 320 318 315 312 305 293 290 296 292 248 160 165 246 217 77 75 57 34
130 136 134 200 198 149 160 117 129 135 121 161 139 103 334 327 340 14 21 116 44 349 219 213 204 206 241 234 195 229 249 277 290 93 137 239 219 294 239 218 271 283 259 260 313 303 271 202 212 220 225 258 269 269 262 259 266 234 124 124 254 294 316 326 334 338 340 339 340 344 348 349 348 353 1 7 11 7 2 358 353 346 337 343 349 337 328 354 50 97 80 67 74 64 65 57 45
229 175 161 176 183 163 154 141 125 86 37 111 107 46 331 334 350 324 335 9 63 28 20 2 349 339 261 221 118 218 220 245 265 126 173 233 174 183 220 222 253 273 259 236 18 296 263 214 214 224 228 244 260 267 262 259 273 299 344 2 320 331 346 354 356 349 347 347 348 353 0 5 12 26 30 30 36 37 37 35 29 29 29 27 31 29 19 23 42 60 59 60 64 60 59 62 59
312 219 181 159 166 154 121 123 109 66 349 287 102 64 306 313 328 291 320 8 16 353 30 335 334 359 18 24 31 253 219 218 235 163 168 214 200 195 209 223 244 257 260 295 314 257 246 219 215 225 226 225 233 242 232 230 258 306 319 348 5 7 13 19 10 359 0 359 357 4 19 28 36 45 40 35 42 45 47 45 36 32 37 40 36 29 32 43 51 57 58 61 66 63 57 57 57
328 240 165 133 147 143 127 133 116 110 233 284 94 113 278 312 325 301 322 4 332 328 343 345 349 9 24 3 310 252 222 210 212 173 164 191 202 204 217 229 237 240 239 220 203 214 223 211 199 223 217 197 202 203 188 184 205 276 350 25 26 24 30 35 20 9 12 7 7 21 38 44 49 54 50 46 49 50 51 50 44 37 34 37 41 44 49 55 57 60 66 69 68 63 51 48 45
280 243 151 137 156 155 144 141 119 154 188 359 32 105 102 306 287 292 326 27 353 338 326 334 354 355 358 308 253 235 214 203 197 191 175 180 191 201 217 227 229 222 210 196 180 168 160 147 143 160 170 174 180 181 180 173 162 126 66 46 38 46 53 53 37 22 20 19 27 41 48 55 61 64 64 61 56 53 50 49 47 47 48 50 55 59 62 64 69 71 70 67 62 57 48 46 46
273 249 139 139 151 137 136 134 108 70 79 343 310 82 85 280 278 311 1 54 332 315 290 298 325 319 313 280 250 231 213 204 195 202 193 188 200 210 216 216 214 207 191 178 154 137 138 134 133 147 154 159 162 167 173 158 135 111 79 57 62 70 69 65 52 35 31 39 50 56 60 69 73 72 69 65 59 54 51 49 50 53 60 67 70 70 74 78 79 73 65 60 55 52 49 48 52
191 97 81 71 67 73 82 100 89 38 42 259 255 138 105 280 287 322 5 20 266 264 263 275 280 270 263 263 253 233 218 195 186 197 169 188 213 219 210 171 163 163 153 139 129 133 136 133 135 144 148 147 144 142 138 128 115 100 90 79 79 79 73 65 54 44 45 57 66 71 77 81 81 77 71 65 59 55 53 53 56 60 66 74 78 79 83 81 73 65 59 54 47 47 51 51 58
119 95 75 64 45 45 53 49 64 46 338 269 246 170 117 322 288 264 229 234 215 196 231 258 244 229 230 248 257 246 155 116 112 83 88 105 141 162 163 157 155 155 155 149 140 139 140 140 141 142 138 129 126 123 119 119 96 84 93 90 85 83 76 66 63 65 66 74 82 87 91 91 86 79 72 64 58 55 55 56 58 63 69 80 87 87 82 72 63 57 51 47 45 49 52 53 60
102 93 89 82 24 16 33 1 30 98 265 277 263 184 107 90 278 257 246 256 222 177 186 209 212 211 228 258 298 319 46 114 122 120 126 128 142 172 188 186 182 178 174 166 152 142 136 135 136 135 127 120 121 118 110 109 99 93 98 97 93 87 77 71 79 84 84 89 94 97 99 97 89 82 74 65 59 57 57 57 60 65 73 85 92 88 76 63 54 48 44 46 49 52 51 46 50
88 94 90 88 34 16 22 321 307 224 248 257 246 230 94 191 246 264 263 261 242 206 196 194 191 183 201 234 264 299 28 137 148 150 166 178 186 195 200 200 194 188 180 168 155 142 135 133 131 128 124 123 125 118 106 103 101 104 108 107 101 92 82 82 91 99 102 101 103 106 105 101 93 85 77 64 55 58 58 57 62 69 78 87 90 83 69 55 45 42 43 49 54 55 49 42 44
134 124 113 110 96 74 267 266 269 264 258 224 227 242 33 271 285 303 273 254 230 211 202 188 164 155 175 192 200 222 235 194 187 184 187 195 203 203 204 205 199 191 182 170 156 145 139 136 133 131 130 131 134 129 118 110 109 113 117 114 106 92 81 90 99 105 113 112 112 115 112 107 102 91 78 60 49 57 61 61 68 77 86 89 84 73 60 47 39 40 46 54 59 57 50 46 46
156 149 127 135 152 151 189 213 196 235 254 269 289 312 124 177 310 311 280 242 186 147 125 104 101 128 156 152 166 192 215 222 213 210 208 208 210 209 208 207 199 190 182 172 160 148 141 137 137 139 138 142 145 138 131 129 127 126 123 118 103 74 57 77 106 109 115 120 119 121 121 117 112 93 67 49 43 54 63 72 81 88 92 87 77 66 56 48 39 40 49 56 61 57 47 45 44
198 162 109 136 183 150 148 181 165 170 164 15 323 356 173 194 302 324 329 100 85 85 90 89 98 127 138 142 184 208 222 233 228 225 229 230 227 225 226 221 209 197 185 173 162 151 146 144 145 145 145 149 152 146 143 145 141 136 129 118 96 60 48 64 99 112 124 129 125 131 135 129 118 68 40 33 29 44 68 94 99 99 99 86 75 66 57 51 44 43 48 49 52 49 40 40 40
161 122 144 193 175 120 118 148 63 85 114 247 284 85 318 331 3 331 3 81 62 67 98 110 141 162 165 182 204 224 231 233 234 235 244 254 252 249 246 237 224 210 195 179 164 157 154 153 153 153 152 152 151 150 150 144 139 133 121 106 83 53 44 61 96 112 135 141 136 147 156 157 255 337 356 1 309 236 123 128 120 112 105 84 71 63 57 55 51 48 44 36 38 39 34 38 36
118 138 191 185 87 86 101 106 17 45 128 270 344 124 280 351 122 300 338 113 185 212 139 149 219 223 219 223 227 237 238 241 249 254 268 274 266 263 251 237 226 215 205 188 172 166 163 162 162 159 159 156 149 147 145 139 132 118 97 85 67 47 49 83 118 124 139 156 168 179 208 269 312 324 326 324 274 212 162 153 141 123 109 86 72 65 61 58 54 50 42 31 27 24 23 29 27
115 152 166 113 107 104 70 117 132 98 156 285 340 28 241 187 184 225 198 176 197 211 185 184 212 222 225 235 247 251 251 254 257 257 267 267 261 288 272 250 238 228 219 205 191 184 174 169 169 165 164 160 149 148 146 136 121 101 83 65 41 16 19 132 155 149 152 186 253 266 281 292 309 319 314 297 257 206 173 166 150 128 117 100 83 73 65 54 48 46 39 27 16 5 6 16 18
61 98 59 24 128 151 146 135 152 138 147 242 327 358 266 226 206 187 186 195 191 184 194 202 208 215 216 224 240 251 251 247 245 246 251 252 67 24 285 269 262 251 245 236 222 210 189 173 170 171 172 164 155 153 147 131 110 93 68 40 12 315 277 201 184 181 197 239 276 285 291 294 295 294 290 280 247 205 178 165 149 130 130 113 91 80 64 39 35 37 32 21 6 351 347 360 9
88 76 41 6 84 130 147 79 90 123 134 172 145 344 270 254 216 178 182 196 191 180 187 200 214 222 220 226 235 242 245 241 234 232 247 312 52 21 281 271 270 266 266 273 269 247 216 189 176 174 174 167 160 156 145 127 105 84 54 60 93 89 119 167 185 207 245 266 279 284 287 290 287 274 270 266 235 197 174 163 158 161 149 122 88 75 53 29 25 24 19 8 354 340 330 343 1
150 149 181 172 129 119 120 6 305 117 122 162 149 177 261 266 238 191 183 190 195 186 181 186 212 230 228 232 237 237 241 243 233 158 358 19 38 359 280 262 265 277 285 291 292 275 246 222 198 181 174 166 159 154 145 131 111 90 81 110 122 114 119 151 180 207 234 253 271 280 283 283 279 264 264 261 226 190 175 173 183 184 162 136 84 55 31 13 10 8 360 351 342 334 323 326 350
Height
783 784 783 785 784 785 787 787 799 802 802 813 810 807 803 795 795 796 794 791 791 787 782 784 782 782 786 789 790 790 791 795 799 807 807 791 784 787 787 790 792 793 795 797 800 802 805 807 809 810 811 812 812 813 813 814 814 815 815 815 816 817 817 818 818 819 820 820 821 821 820 820 820 820 820 821 821 821 821 821 821 821 821 821 821 821 821 820 820 820 819 819 819 819 819 819 819
783 784 783 785 783 786 790 787 803 810 809 815 809 805 801 795 797 796 794 792 790 785 781 782 781 781 781 782 783 788 791 790 789 791 790 786 787 789 789 791 793 795 796 797 799 801 804 806 808 810 811 812 813 813 814 814 815 815 816 816 817 817 818 819 819 820 820 821 821 821 821 820 821 821 821 821 821 821 821 821 821 821 821 821 821 821 820 820 820 820 819 819 819 819 818 818 819
783 785 784 786 784 786 790 792 806 815 815 815 809 803 798 798 798 794 792 789 786 782 782 782 782 782 783 787 787 790 794 789 786 787 787 787 788 789 791 792 794 797 798 799 800 801 803 805 807 809 810 811 812 813 814 815 815 816 816 816 817 818 818 819 820 820 820 821 821 821 821 821 821 821 821 821 821 821 821 821 821 821 821 821 821 821 820 820 819 819 819 819 819 818 818 818 819
782 784 785 786 788 790 794 801 807 812 815 813 810 804 799 801 798 794 790 787 783 782 784 783 785 781 782 792 790 790 794 789 786 786 787 788 788 790 791 793 795 797 799 801 802 803 804 805 807 808 810 811 812 813 814 815 815 816 816 817 818 818 819 820 820 821 821 821 821 821 821 821 821 821 821 821 821 821 821 821 821 821 821 821 820 820 820 819 819 819 819 819 818 818 818 818 819
782 784 785 786 793 795 796 804 807 810 813 810 811 806 800 801 799 796 790 786 783 783 784 784 789 782 780 788 789 793 794 790 788 786 788 788 789 791 792 794 796 798 801 802 803 805 805 807 808 809 811 811 812 813 814 815 815 816 817 817 818 819 819 820 821 821 821 821 821 821 821 821 821 821 821 821 821 821 821 821 821 821 820 820 820 820 820 819 819 819 819 818 818 818 818 819 819
783 784 785 785 791 792 798 807 810 812 809 806 809 806 801 798 797 797 791 787 782 782 782 783 788 786 788 788 786 791 790 789 788 786 787 789 790 792 793 794 796 798 801 803 804 806 807 808 809 810 811 812 813 814 814 815 816 816 817 818 818 819 820 820 821 821 821 821 821 821 821 822 822 822 822 822 821 821 821 821 821 821 820 820 820 820 819 819 819 818 818 818 818 818 817 818 817
783 786 786 789 792 792 803 812 812 812 804 801 804 803 803 798 795 796 794 790 786 783 782 783 783 788 796 791 789 789 785 786 786 787 788 789 791 792 794 795 797 798 800 803 805 806 808 809 810 811 812 813 814 814 815 815 816 817 817 818 818 819 819 820 820 821 821 821 821 821 822 822 822 822 822 822 821 821 821 820 820 820 820 820 819 819 819 819 818 818 818 818 818 816 815 816 817
782 786 787 794 800 799 808 812 810 808 801 798 799 800 802 798 796 797 796 794 792 788 785 785 782 792 799 792 796 792 785 787 786 788 789 790 792 794 795 796 797 799 801 803 804 807 808 810 810 811 812 813 814 815 815 816 817 817 818 818 818 819 819 820 820 821 821 821 821 821 822 822 822 822 822 822 821 821 820 820 820 820 820 819 819 819 818 818 817 817 817 817 818 815 814 815 815
782 787 789 798 806 806 811 813 810 805 800 798 798 800 799 796 796 797 796 794 793 791 789 786 782 794 801 795 800 793 787 789 787 789 790 792 793 795 797 797 798 799 801 802 804 807 808 810 811 812 813 814 814 815 816 816 817 817 817 818 818 819 819 820 820 821 821 821 821 821 822 822 822 822 822 821 821 821 820 820 820 820 819 819 819 818 818 817 817 817 816 817 816 814 814 815 813
784 788 793 801 807 813 816 814 811 806 801 799 798 798 797 795 795 796 797 796 794 793 791 785 784 794 800 801 801 794 791 790 788 791 791 793 794 796 798 798 800 800 801 802 804 806 808 810 810 812 813 814 814 815 816 816 816 816 817 817 818 818 819 819 820 820 821 821 821 821 821 821 821 821 821 821 821 820 820 820 819 819 819 819 818 817 817 816 816 816 816 815 815 813 813 814 812
790 791 792 803 811 817 818 814 810 807 801 798 798 796 796 796 795 796 796 796 793 794 791 786 792 797 798 802 802 795 793 791 790 792 793 794 795 797 799 800 801 801 802 803 804 806 807 809 810 812 812 813 814 814 815 815 816 816 817 817 818 818 819 819 820 820 820 821 821 821 821 821 821 821 821 821 821 820 820 819 819 819 818 818 817 817 816 816 815 814 815 815 814 812 812 813 811
795 796 795 807 815 817 815 813 810 806 803 801 801 797 795 796 797 797 797 798 794 795 793 790 793 793 800 806 801 795 794 794 793 793 794 795 796 798 799 801 802 802 804 804 805 806 808 809 810 812 812 813 813 814 815 815 816 816 817 817 818 818 819 819 819 820 820 821 821 821 821 821 821 821 821 820 820 820 819 819 818 818 818 817 817 816 816 816 815 813 814 814 813 812 811 812 810
794 797 799 809 811 812 813 814 810 807 808 805 803 798 795 797 798 798 798 798 795 798 795 789 788 790 802 807 800 797 796 795 794 794 795 796 798 799 801 801 802 804 804 805 806 807 809 809 810 811 812 813 814 814 815 815 816 816 817 817 818 818 819 819 820 820 820 821 821 821 821 821 821 820 820 820 819 819 819 818 818 817 817 817 816 816 816 816 815 813 813 813 812 811 810 810 809
791 793 799 809 809 810 812 815 812 811 812 805 801 798 797 798 798 797 797 798 798 796 792 785 785 792 803 806 804 800 797 796 796 796 796 798 799 800 801 802 803 804 805 806 807 808 809 810 811 811 812 813 814 814 815 815 816 817 817 817 818 819 819 819 820 820 820 821 821 821 821 820 820 820 819 819 819 818 818 818 817 817 817 817 817 816 816 815 815 813 812 812 812 811 810 809 808
788 790 797 808 809 810 811 813 812 813 813 803 800 798 799 798 795 797 796 798 798 789 786 785 784 794 802 804 805 799 795 797 797 798 798 799 800 801 802 803 804 805 806 806 807 808 809 810 811 812 812 813 814 814 815 815 816 817 817 818 818 819 819 820 820 820 820 821 820 821 820 820 819 819 818 818 818 818 817 817 817 817 817 817 817 816 815 815 814 813 812 811 811 811 809 808 807
784 788 800 809 810 811 810 809 810 813 810 802 800 798 801 798 793 798 793 792 795 787 787 789 785 790 796 797 796 792 794 797 797 799 798 800 801 802 803 803 804 804 806 806 807 808 809 810 810 811 812 813 814 814 815 815 816 817 817 818 818 819 819 820 820 820 820 820 820 820 820 819 818 818 817 817 817 817 817 817 817 816 816 816 816 815 814 814 813 812 812 811 810 811 809 807 806
782 791 805 811 810 809 806 805 806 807 806 804 802 800 804 800 795 795 788 788 793 790 789 790 786 786 789 790 789 790 794 796 797 799 799 801 801 802 803 803 804 804 805 806 806 808 808 810 810 811 812 812 813 814 815 815 816 816 817 818 818 819 819 820 820 820 820 820 820 819 819 818 817 817 817 817 817 817 817 816 816 815 815 814 814 814 813 812 812 811 811 811 811 810 809 806 805
788 799 809 810 807 803 798 798 798 798 801 804 802 802 803 801 798 793 789 792 793 793 792 790 788 786 786 787 788 791 794 795 797 798 799 800 801 802 803 803 804 804 804 805 806 806 807 808 809 811 811 812 813 813 814 814 816 816 817 817 818 819 819 820 819 820 820 819 819 818 818 817 817 816 816 816 816 816 816 815 815 814 814 813 813 813 812 811 810 810 810 811 810 809 808 806 805
792 801 808 805 800 796 791 792 792 794 797 801 801 800 800 799 796 792 795 799 795 797 797 793 794 791 789 788 790 792 793 795 796 797 798 799 800 801 802 803 803 803 803 804 804 805 806 808 809 810 811 812 812 813 814 814 815 816 817 817 818 818 818 819 819 819 818 818 818 817 817 817 817 816 816 816 815 815 815 815 814 813 813 813 812 812 811 810 810 809 809 809 809 808 807 806 804
791 798 807 801 792 791 790 790 791 790 792 798 800 798 799 796 792 791 796 801 799 801 799 797 799 796 793 790 790 793 793 795 796 797 798 798 799 799 801 801 801 802 802 803 804 805 806 807 808 809 810 812 812 813 814 814 815 816 817 817 818 818 818 818 818 818 817 817 817 817 817 817 816 816 815 815 815 815 814 814 813 813 813 812 812 812 811 810 810 809 808 807 807 806 806 804 804
790 795 801 794 787 792 791 789 790 790 792 796 798 797 799 793 790 792 795 803 804 801 796 794 797 795 794 792 792 794 795 796 797 798 798 799 799 799 800 800 800 800 802 804 804 805 806 807 808 809 810 811 812 813 813 814 815 816 816 817 817 817 817 817 817 817 817 817 817 817 817 816 815 815 815 814 814 814 814 813 813 813 812 812 812 811 810 810 809 808 807 806 806 805 804 803 803
790 791 790 787 786 792 792 788 790 790 792 795 797 798 797 792 792 793 795 802 802 795 790 789 791 791 791 792 793 794 796 797 798 798 799 799 799 799 800 800 801 801 802 804 804 805 806 806 807 808 810 810 811 813 813 815 815 816 816 816 816 816 816 816 816 816 816 816 816 816 816 815 815 814 814 814 813 813 813 812 812 812 812 811 811 810 809 808 808 807 806 805 805 804 803 802 801
790 789 785 786 785 789 791 788 790 790 793 797 797 795 793 795 796 794 795 797 793 787 786 786 788 789 789 790 792 795 796 797 797 797 798 798 799 798 799 799 800 801 802 803 804 805 805 806 807 808 809 810 811 812 813 814 814 815 815 815 815 815 815 815 815 815 815 815 815 815 815 814 814 814 813 813 813 812 812 811 811 811 810 810 809 809 808 807 807 806 806 805 804 803 802 801 800
788 791 786 786 785 787 788 788 790 790 793 794 792 793 794 798 798 795 796 792 788 785 784 784 787 788 789 791 792 794 795 795 796 796 796 797 797 797 798 799 800 801 802 802 803 804 805 806 807 808 809 810 810 811 812 812 813 814 814 814 814 815 815 815 815 815 815 814 814 814 814 813 813 813 812 812 811 811 811 810 809 809 808 808 808 807 807 806 806 806 805 805 803 802 801 800 799
787 789 787 785 786 788 787 788 791 791 793 792 792 796 797 797 796 796 795 790 787 785 784 785 787 789 791 792 793 793 794 795 795 796 797 797 798 799 799 800 801 802 801 802 803 804 805 806 807 808 809 809 810 811 811 811 812 813 813 813 814 814 815 814 814 814 814 813 813 813 813 813 812 812 811 811 810 809 809 809 808 807 807 807 806 806 806 806 805 805 804 804 803 802 800 799 798
784 784 786 786 789 789 789 791 792 793 793 793 796 800 798 794 795 797 792 788 787 785 786 787 788 791 792 793 793 793 794 795 796 796 797 798 799 799 799 801 801 801 801 802 803 804 805 806 807 807 808 809 809 810 810 810 811 812 812 812 813 814 814 813 813 813 813 813 812 812 812 811 811 810 810 809 809 808 808 807 806 806 805 805 805 804 804 804 804 804 804 803 802 801 800 799 797
777 782 786 787 790 790 790 793 793 793 793 794 798 802 799 794 799 802 792 787 787 787 789 789 790 793 792 793 792 792 794 794 794 795 797 798 799 799 799 800 801 800 801 802 802 803 804 805 805 806 807 808 808 809 809 810 810 811 811 812 812 812 812 813 813 812 812 812 811 811 811 810 810 809 809 808 807 807 806 805 805 804 803 803 802 801 801 802 803 803 802 802 801 800 799 798 797
777 782 788 791 790 790 791 794 795 795 796 795 797 801 800 797 802 802 792 787 788 790 792 791 792 793 792 793 792 792 792 793 794 795 797 798 797 798 799 799 800 800 800 801 801 803 803 803 804 805 805 806 807 808 808 809 809 810 811 811 811 811 812 812 812 812 811 811 811 810 810 809 809 808 808 807 806 805 804 803 802 802 801 800 800 799 798 799 801 802 801 801 800 799 798 797 796
779 783 795 798 794 796 794 794 795 795 798 794 795 806 807 804 802 796 790 788 789 792 794 793 793 793 792 792 792 792 792 793 795 796 796 796 797 798 798 799 799 799 799 800 801 802 802 802 802 803 804 805 805 806 807 808 808 809 810 811 811 811 811 811 811 811 810 810 809 809 809 808 807 807 806 805 804 803 802 801 800 799 798 798 798 797 796 796 797 800 800 799 798 797 796 795 795
785 789 798 804 804 804 795 793 795 797 799 791 797 816 813 803 798 792 790 789 791 795 795 795 795 793 793 791 792 793 793 794 795 795 795 795 797 798 798 798 798 798 799 800 800 800 800 800 800 801 802 803 803 805 806 807 808 808 809 810 810 810 810 810 810 809 809 809 808 808 807 806 806 805 805 804 803 801 800 799 798 797 796 796 795 795 795 795 796 798 799 798 797 796 794 794 793
793 797 801 808 814 808 795 794 797 801 800 791 801 821 813 799 795 791 790 790 793 798 798 797 796 795 794 793 794 794 793 794 794 795 796 796 797 798 798 798 798 799 799 799 799 798 798 798 798 799 800 801 802 803 804 805 806 807 808 809 809 809 809 809 809 808 808 807 807 806 806 805 804 804 803 802 801 800 799 797 797 798 797 795 795 794 795 795 796 798 798 797 796 795 793 792 792
799 806 811 814 814 808 799 794 796 802 802 794 804 821 813 799 794 790 790 791 794 799 799 798 796 796 795 795 795 795 794 792 793 794 796 797 798 797 797 798 798 798 798 798 798 798 797 796 796 797 798 800 801 802 803 804 805 806 807 807 808 808 808 808 808 807 807 806 806 805 805 804 803 802 801 800 799 798 797 796 796 797 796 794 794 794 794 793 794 796 797 797 795 794 793 791 791
804 809 815 815 814 813 805 797 794 797 802 801 806 815 811 800 795 792 790 792 796 799 800 798 797 797 796 797 797 796 795 793 792 793 795 796 796 796 796 797 797 797 797 797 797 797 796 795 795 796 797 798 800 801 802 803 804 805 805 806 806 807 806 806 806 806 806 806 805 805 804 803 801 800 799 798 797 797 796 794 793 793 792 791 791 791 792 793 793 794 795 797 797 795 793 791 790
811 810 813 811 810 812 809 803 796 794 801 806 808 813 810 800 797 795 792 792 797 800 801 799 798 797 797 799 799 798 796 795 793 792 794 795 795 796 796 796 797 797 797 796 796 796 794 794 794 795 796 798 799 800 801 802 803 804 804 805 805 805 805 805 805 805 805 805 805 804 803 802 800 799 798 797 796 795 794 792 791 791 790 789 789 789 789 791 792 793 793 795 796 795 793 790 789
809 809 811 810 807 809 809 804 797 796 802 807 812 816 809 801 799 797 794 793 797 800 800 799 798 798 798 799 799 798 796 795 793 792 794 794 795 796 796 797 797 796 796 796 795 795 794 794 794 794 796 797 798 799 800 801 802 803 803 803 804 804 804 804 804 805 805 804 804 803 802 800 799 798 797 796 795 794 792 791 791 790 789 788 787 788 788 787 789 791 792 792 793 793 792 790 789
797 800 803 806 806 807 804 798 793 795 804 809 812 814 806 802 801 798 796 794 797 800 798 798 798 798 799 799 799 798 796 795 793 793 795 796 797 798 798 798 797 797 796 796 796 795 795 795 795 795 796 796 797 798 799 800 801 802 802 803 803 803 804 804 804 804 803 803 802 801 800 799 798 797 796 795 794 793 791 790 789 789 788 787 786 786 786 786 785 786 789 791 791 791 791 789 788
791 795 799 801 803 803 797 793 791 790 803 811 808 810 808 804 803 800 798 797 798 800 799 798 798 799 799 799 799 798 796 794 793 795 798 801 800 799 798 798 798 798 798 797 797 797 796 796 796 796 797 797 797 798 798 799 800 802 803 803 803 803 803 803 803 802 802 801 800 799 798 798 797 796 795 794 793 791 790 789 788 788 787 785 784 784 784 783 781 781 786 789 790 790 789 788 788
791 794 798 800 802 800 792 791 792 789 800 809 806 809 810 806 804 800 798 799 800 800 800 799 798 799 799 800 800 798 796 794 794 798 801 802 801 799 799 799 800 799 798 799 798 798 797 797 797 797 797 798 798 798 798 798 799 801 803 803 802 802 802 802 802 801 800 800 799 798 798 797 796 795 794 793 792 790 789 788 787 787 786 785 784 783 783 782 780 781 785 787 788 789 788 788 788
791 794 798 802 800 797 793 792 793 790 798 808 808 810 810 807 805 802 799 799 799 798 797 798 798 799 799 799 800 798 798 796 796 800 800 798 799 799 799 801 802 799 797 798 799 799 798 797 797 796 796 797 797 797 797 797 797 799 802 802 802 802 801 801 800 800 799 799 798 798 797 796 795 794 793 792 791 790 789 788 787 786 785 785 784 783 783 783 782 783 785 786 787 788 788 789 789
790 793 797 800 796 797 801 799 797 793 796 805 807 808 810 808 806 803 801 799 799 798 796 796 797 798 798 798 799 798 798 798 797 800 797 794 797 797 795 797 798 797 796 795 798 801 799 796 795 795 795 795 795 796 796 796 796 797 799 800 801 801 800 800 799 799 799 798 798 797 797 796 795 794 793 792 791 791 789 788 787 786 785 785 785 784 784 783 783 784 785 787 787 788 789 789 789
788 788 790 794 793 794 797 798 797 795 798 799 804 814 814 810 810 807 803 801 800 800 798 797 798 798 797 797 798 797 797 797 797 798 795 792 794 795 793 794 795 796 796 795 798 803 801 796 794 794 794 794 794 795 795 795 796 797 798 799 799 799 799 799 799 799 798 798 798 797 797 796 795 795 794 793 792 791 790 789 788 787 787 787 786 786 786 785 785 786 787 788 788 789 789 790 790
788 783 781 784 788 791 793 796 798 807 813 801 802 826 827 814 814 812 807 805 803 802 801 800 800 799 798 798 798 797 796 795 794 795 794 791 792 794 794 794 795 794 794 795 800 804 801 795 793 793 793 793 794 794 795 796 796 797 797 797 797 797 798 798 798 799 798 798 798 797 797 797 796 796 795 794 793 793 792 790 789 789 788 788 788 788 788 787 788 788 788 789 789 790 790 790 790
792 780 773 778 784 788 793 796 801 815 821 804 799 823 833 820 815 814 810 808 806 803 801 800 800 800 798 798 797 795 794 792 792 792 792 791 790 791 792 792 792 791 792 795 800 801 797 793 792 791 792 792 793 794 795 796 796 796 796 796 796 797 797 798 799 799 799 798 798 797 798 797 797 797 796 795 795 794 793 792 791 790 790 790 790 790 789 789 789 789 790 790 791 791 791 791 791
791 777 771 777 781 787 792 795 802 810 812 808 803 812 827 825 817 815 812 810 808 805 803 800 800 800 797 796 795 793 791 790 790 791 791 791 791 791 791 791 791 791 793 796 797 796 793 791 791 791 791 792 793 794 795 796 796 796 796 796 796 796 797 798 798 799 799 798 798 798 798 798 798 798 797 797 796 795 794 794 793 792 792 791 791 791 791 791 791 792 792 792 792 792 792 792 792
784 775 773 775 778 786 791 795 803 805 810 820 815 811 826 830 819 815 813 812 813 809 805 802 801 799 796 794 793 790 789 788 788 790 791 792 792 792 793 793 793 793 793 793 793 792 791 791 791 791 792 793 794 795 796 796 796 796 796 796 797 797 797 798 798 798 799 798 798 799 799 799 799 799 798 798 798 797 796 795 795 794 794 793 793 793 793 793 794 794 794 794 794 794 793 793 793
776 774 775 778 784 789 793 800 804 807 816 825 819 813 827 832 821 819 818 815 814 810 805 802 800 798 794 792 792 790 790 790 789 790 791 792 793 793 794 794 793 793 792 792 791 791 790 791 791 792 793 794 795 796 796 796 796 797 797 797 797 798 798 798 799 799 799 799 799 799 800 800 800 800 800 799 799 798 798 797 796 796 796 795 796 796 795 796 795 795 795 795 795 795 795 794 794
772 776 780 786 792 791 796 802 803 817 827 824 819 812 819 831 825 819 817 811 809 806 804 802 798 796 794 792 792 792 792 792 791 791 791 791 792 792 792 792 791 791 791 790 790 790 790 791 792 793 794 795 795 796 796 797 797 797 797 798 798 799 799 799 799 799 800 800 800 800 801 801 801 801 801 801 801 800 799 799 798 798 797 797 797 797 797 797 797 797 797 797 797 796 796 795 794
773 779 785 796 806 803 808 810 810 831 837 823 819 812 814 830 826 815 812 806 803 803 800 800 797 796 796 794 794 793 793 793 792 792 791 791 790 789 789 788 788 788 787 788 788 789 790 791 792 793 794 795 795 796 796 796 797 797 797 798 799 799 800 800 800 800 800 801 801 801 802 802 802 802 802 802 802 802 801 800 800 800 799 799 799 799 799 799 799 798 798 798 798 797 797 796 795
780 783 789 808 827 829 832 833 830 838 833 818 818 813 817 826 817 810 808 801 800 799 795 795 795 796 797 796 795 793 792 792 791 791 790 789 788 787 787 786 786 786 786 787 788 788 790 790 791 792 793 794 795 795 796 796 796 797 797 798 799 799 800 800 800 801 801 801 802 802 802 803 803 803 803 803 803 803 802 802 802 801 801 801 801 801 800 800 800 799 799 798 798 798 798 797 796
783 784 790 809 832 845 851 850 845 840 826 816 814 813 822 825 813 809 807 799 796 795 793 793 793 795 797 795 795 793 792 791 790 789 788 786 785 784 784 784 785 786 787 788 789 789 790 790 790 791 792 793 794 795 795 796 796 797 798 798 799 799 800 800 801 801 802 802 802 803 803 803 804 804 804 804 804 804 803 803 803 802 802 802 802 802 801 801 801 800 799 799 799 799 798 798 797
781 779 783 798 812 827 840 840 838 837 828 819 814 816 826 827 817 809 804 799 796 794 794 794 794 795 795 795 795 793 792 790 788 787 785 784 783 783 784 784 786 787 787 788 789 790 790 791 791 791 791 792 793 795 795 796 797 798 798 799 799 800 800 801 801 802 802 803 803 803 804 804 804 805 805 805 804 804 804 804 804 804 804 803 803 803 803 802 802 801 801 800 800 799 799 798 798
784 778 783 794 792 797 817 825 824 825 827 825 821 822 824 820 813 807 803 800 797 796 796 796 797 797 796 796 796 794 792 790 787 786 784 784 784 786 787 788 789 789 789 789 790 791 791 792 792 791 792 792 793 794 795 796 797 799 799 800 801 801 801 802 802 803 803 803 804 804 804 805 805 805 805 805 804 804 805 805 805 805 804 804 804 804 803 803 803 802 802 801 801 800 800 799 798
784 783 785 788 781 783 806 823 822 821 829 832 828 826 823 820 816 810 805 803 800 800 798 797 798 797 797 797 796 795 792 789 787 786 785 785 787 789 790 791 791 791 791 792 792 792 792 792 793 792 792 792 793 794 795 797 798 799 800 801 802 802 803 803 804 804 804 804 805 805 805 805 805 805 805 804 804 804 805 805 805 805 805 805 805 804 804 804 803 803 803 802 802 801 800 799 799
777 785 781 779 782 784 796 817 828 831 836 834 829 831 830 829 826 816 809 807 804 803 801 799 799 798 798 798 795 794 791 788 787 786 786 787 788 790 791 791 792 793 794 794 794 794 793 793 793 793 793 793 794 795 796 798 799 800 801 802 803 803 804 804 805 805 805 805 806 806 806 806 805 805 805 804 805 804 805 805 805 805 805 805 805 805 805 804 804 803 803 803 802 801 801 800 799
763 770 769 775 791 797 799 813 827 835 844 840 834 835 830 824 822 817 814 810 804 805 804 800 800 799 798 797 795 793 790 788 788 787 788 788 789 791 792 792 793 794 795 796 796 795 794 794 794 794 795 794 795 796 797 798 799 800 801 802 803 803 804 805 805 805 806 806 806 806 806 806 805 805 805 805 805 805 805 806 806 806 806 806 806 805 805 805 804 804 803 803 803 802 801 801 800
762 764 768 774 785 794 799 807 812 820 840 846 838 834 824 812 809 809 810 806 802 804 805 801 799 797 797 797 795 792 790 789 789 789 789 789 791 793 792 793 794 795 796 797 797 797 795 794 794 794 795 795 796 797 797 799 800 800 801 802 802 803 803 804 805 805 806 806 806 806 806 806 805 805 805 804 805 805 805 806 806 806 806 806 806 806 805 805 805 804 803 803 803 802 802 801 801
772 775 779 781 785 791 794 803 808 810 826 839 839 834 820 804 800 801 801 800 798 800 801 800 799 797 796 796 793 791 789 789 790 790 791 791 793 794 793 794 795 795 797 798 799 799 798 796 795 794 795 795 797 798 798 800 800 800 801 801 802 802 802 803 804 805 805 805 805 805 805 805 805 805 805 804 805 805 805 806 806 806 806 806 806 806 806 805 805 804 804 803 803 802 802 801 801
767 771 776 778 781 790 799 811 814 808 814 825 830 830 816 800 798 797 794 794 794 796 797 798 799 797 796 795 791 789 789 789 791 792 793 794 794 795 794 794 795 795 797 798 799 800 800 800 798 796 795 796 797 798 798 799 800 800 801 801 801 802 802 803 804 804 804 804 804 804 804 805 805 804 804 804 804 805 805 805 805 806 806 806 806 806 806 806 805 805 804 803 803 802 801 801 800